Location: Clarmond Country Club
(42.7416°N, 93.6752°W)
Time: 01:37:22
(UTC+00:00)

Daily predictions for brighter satellites

Satellite Brightness Start Highest point End
(mag) Time Altitude Azimuth Time Altitude Azimuth Time Altitude Azimuth
Cosmos 1805 Rocket 3.5 01:54:47 10° N 01:59:09 74° E 02:03:30 10° SSE
ERS-2 2.3 01:56:35 10° NNE 02:00:13 80° WNW 02:03:50 10° SSW
OBJECT-B 0.7 01:57:56 10° SSE 02:01:09 77° ENE 02:04:25 10° N
Cosmos 1553 Rocket 4.2 01:56:52 10° S 02:03:00 80° W 02:09:18 10° N
Cosmos 1633 Rocket 4.0 01:59:38 10° NNE 02:03:33 30° ENE 02:07:27 10° SE
Cosmos 1437 Rocket 3.3 02:00:28 10° SSW 02:04:19 63° WNW 02:08:17 10° N
Cosmos 1328 Rocket 4.4 02:06:58 10° SSE 02:10:51 31° E 02:14:45 10° NNE
USA 267 4.1 02:05:06 10° SSE 02:11:20 46° SW 02:17:37 10° WNW
Cosmos 1606 4.3 02:08:56 10° SSW 02:12:28 38° WNW 02:16:03 10° N
Helios 1A Rocket 4.2 02:11:04 10° S 02:14:58 41° W 02:18:55 10° NNW
USA 308 4.4 02:11:42 10° NW 02:15:31 30° NNE 02:19:19 10° E
USA 290 2.8 02:12:29 10° NNW 02:15:40 55° WSW 02:18:47 10° S
Cosmos 1777 Rocket 4.4 02:12:02 10° S 02:16:52 40° ESE 02:21:42 10° NE
Cosmos 2082 Rocket 3.8 02:14:30 10° N 02:18:38 20° NE 02:22:44 10° E
Cosmos 1503 Rocket 4.2 02:13:32 10° SSW 02:18:42 77° WNW 02:23:56 10° NNE
MOS 1-B Rocket 4.3 02:12:04 10° NNE 02:19:20 88° E 02:25:30 10° SSW
OE (NEXTSAT) 4.4 02:17:04 10° WNW 02:20:33 79° NNE 02:23:43 12° ESE
Meteor 1-26 Rocket 4.3 02:16:27 10° S 02:22:00 61° E 02:27:26 10° NNE
Cosmos 1602 3.9 02:18:13 10° N 02:22:02 53° E 02:25:50 10° SSE
Ariane Rocket 3.0 02:18:06 10° SSE 02:23:09 81° ENE 02:28:14 10° NNW
CREW DRAGON DEMO-1 DEB 4.3 02:23:12 10° NW 02:25:28 24° NNE 02:27:42 10° E
Tianhe-1 3.0 02:26:37 10° S 02:28:15 14° SSE 02:28:15 14° SSE
Cosmos 1437 2.9 02:25:51 10° SSE 02:28:30 38° E 02:31:10 10° NNE
Cosmos 1933 3.7 02:26:07 10° SSW 02:30:07 67° W 02:34:09 10° N
IRIS 4.5 02:28:30 10° W 02:30:39 34° SSW 02:32:05 18° SE
Resurs 1-3 3.6 02:28:00 10° SSE 02:32:23 89° WSW 02:36:48 10° NNW
COSMOS 2406 3.8 02:27:03 10° NNW 02:32:29 45° ENE 02:36:56 15° SE
ARIANE 5 R/B 4.3 02:31:08 12° ESE 02:33:41 19° ENE 02:36:44 10° NNE
Cosmos 1666 Rocket 3.5 02:29:45 10° N 02:34:09 79° E 02:38:29 10° S
Cosmos 1782 2.7 02:31:58 10° S 02:35:56 75° E 02:39:56 10° NNE
Cosmos 1812 3.4 02:37:34 15° SSE 02:40:16 35° E 02:43:48 10° NNE
SJ 16-02 2.1 02:36:32 10° SSE 02:40:28 33° E 02:44:28 10° NE
Cosmos 2278 Rocket 2.3 02:36:23 10° S 02:41:53 56° ESE 02:47:25 10° NNE
Sich 1 4.0 02:37:45 10° NNW 02:41:57 49° W 02:46:10 10° SSW
Meteor 1-14 Rocket 4.4 02:36:23 10° N 02:42:09 58° ENE 02:46:52 15° SSE
Cosmos 1666 4.0 02:41:00 10° NNE 02:44:02 23° ENE 02:45:30 18° ESE
Landsat 7 3.9 02:45:52 16° SSE 02:49:34 63° ENE 02:54:18 10° N
USA 245 3.8 02:50:48 18° ENE 02:50:48 18° ENE 02:52:25 10° NNE
Cosmos 1151 Rocket 3.3 02:49:00 10° SSW 02:53:21 71° W 02:57:44 10° N
USA 305 3.5 02:50:44 10° NW 02:54:53 50° NNE 02:57:39 20° ESE
ATLAS 5 CENTAUR R/B 3.3 02:49:45 10° NW 02:55:19 45° WSW 03:01:21 11° S
CZ-4C R/B 3.1 02:51:00 10° NW 02:58:24 86° NE 03:04:45 20° SE
NOSS 3-4 (A) 4.3 02:54:53 10° NNW 03:01:42 53° NE 03:07:09 19° ESE
NOSS 3-4 (C) 4.3 02:55:00 10° NNW 03:01:48 53° NE 03:07:15 19° ESE
IGS 5A 3.6 03:03:39 18° S 03:06:39 74° W 03:10:48 10° NNW
SPOT 1/Viking Rocket 3.6 03:03:30 22° SSE 03:06:50 65° ENE 03:11:59 10° N
USA 306 3.0 03:10:11 10° NW 03:14:26 67° NE 03:16:24 30° ESE
Cosmos 1500 3.4 03:10:43 10° NNW 03:14:26 67° W 03:16:32 24° S
ATLAS 2AS CENTAUR R/B 3.6 03:08:03 10° NNW 03:14:58 40° NE 03:19:41 18° ESE
SWARM C 4.4 03:12:03 10° N 03:15:23 80° E 03:16:29 39° S
SWARM A 4.1 03:12:10 10° N 03:15:29 84° E 03:16:39 38° S
Cosmos 1833 Rocket 2.7 03:12:39 10° NNW 03:18:19 82° WSW 03:21:40 26° SSE
CZ-2C R/B 3.7 03:14:18 10° NNE 03:18:49 83° WNW 03:23:09 12° SSW
SPOT 3 Rocket 4.0 03:18:18 16° S 03:22:18 57° W 03:27:23 10° NNW
Cosmos 2228 Rocket 3.5 03:21:23 34° SE 03:22:38 43° E 03:26:53 10° NNE
Resurs 01 Rocket 2.6 03:19:13 15° SSW 03:22:41 44° W 03:26:57 10° NNW
Cosmos 2184 Rocket 4.0 03:16:32 10° N 03:22:43 62° E 03:26:01 28° SSE
GPS 2-04 Rocket1 3.7 03:19:45 10° WSW 03:23:20 29° S 03:23:21 29° S
Cosmos 1536 3.9 03:20:34 10° NNE 03:24:04 28° ENE 03:24:37 27° E
Cosmos 2074 Rocket 4.0 03:18:20 10° N 03:24:38 67° E 03:28:08 28° SSE
Nadezhda 1 Rocket 4.4 03:21:49 27° SSE 03:24:55 46° E 03:30:49 10° NNE
Meteor 1-11 Rocket 4.1 03:19:36 10° N 03:25:26 52° ENE 03:28:06 30° SE
X-37B 2.6 03:24:25 10° W 03:26:35 18° SW 03:26:35 18° SW
Cosmos 1538 Rocket 4.1 03:22:28 10° NNW 03:27:50 80° WSW 03:30:35 29° S
deb Kosmos-1763 4.0 03:24:55 10° NNW 03:28:27 72° WSW 03:29:21 46° S
Spot 2 Rocket 3.4 03:28:09 32° SSE 03:30:33 79° ENE 03:35:37 10° N
Meteor 1-5 Rocket 4.1 03:25:55 10° NNW 03:31:16 76° W 03:34:19 26° S
ERS-1 Rocket 3.2 03:29:55 34° SE 03:31:50 53° ENE 03:36:44 10° N
Cosmos 1515 Rocket 4.1 03:30:24 14° SSW 03:34:05 58° W 03:38:25 10° N
Delta 2 Rocket 4.3 03:35:37 10° WSW 03:39:54 34° S 03:39:54 34° S
JB-3 4.1 03:36:34 10° NNE 03:40:27 86° ESE 03:41:28 47° S
Cosmos 1869 Rocket 3.8 03:37:26 10° N 03:41:41 52° E 03:42:25 46° ESE
USA 307 2.8 03:37:46 10° NW 03:42:03 82° SW 03:42:59 54° SE
Cosmos 1680 Rocket 4.0 03:38:09 10° N 03:43:19 48° ENE 03:44:59 36° ESE
Cosmos 2297 4.0 03:42:09 37° SE 03:43:31 44° ESE 03:48:52 10° NE
BREEZE-M R/B 4.5 03:43:07 10° NW 03:44:58 18° N 03:46:35 12° NE
Meteor 1-10 Rocket 4.3 03:43:16 19° SSW 03:47:24 75° W 03:53:06 10° N
Cosmos 1610 Rocket 4.5 03:41:59 10° N 03:48:05 65° E 03:50:27 38° SSE
Cosmos 1271 Rocket 3.2 03:46:58 29° SSW 03:48:47 60° WNW 03:52:46 10° N
BREEZE-M DEB (TANK) 3.1 03:49:48 10° NW 03:51:23 27° N 03:51:23 27° N
Milstar 3 4.0 03:40:29 10° WSW 03:53:18 37° S 03:56:12 31° SSE
USA 308 2.9 03:51:31 10° WNW 03:55:46 64° SW 03:56:12 60° S
Terra 1.9 03:56:00 50° SE 03:57:00 64° ENE 04:01:44 10° N
Cosmos 1900 4.3 03:55:46 45° S 03:57:10 64° ESE 04:02:11 10° NE
Cosmos 1707 Rocket 4.1 03:57:35 42° E 03:57:35 42° E 04:01:37 10° NNE
H-2A R/B 3.5 03:53:38 10° NNE 03:57:46 57° E 03:57:46 57° E
Cosmos 44 4.0 03:52:31 10° NNW 03:57:48 51° NE 03:59:24 38° E
SL-24 R/B - RUBIN 2 4.4 03:53:49 10° NNW 03:59:07 51° NE 04:00:28 39° E
CARTOSAT-1 3.9 03:58:15 43° SSW 03:59:24 58° W 04:03:40 10° NNW
Cosmos 2082 Rocket 2.3 03:57:40 10° NNW 04:03:16 70° WSW 04:05:04 43° S
Cosmos 1461 4.2 04:04:50 30° ENE 04:04:50 30° ENE 04:07:43 10° NE
Cosmos 1295 Rocket 4.4 04:03:25 10° N 04:09:48 83° E 04:11:59 44° SSE
ARIANE 5 R/B 3.5 04:08:41 34° SW 04:09:50 41° W 04:13:57 10° NNW
Cosmos 1818 4.2 04:07:19 10° NNW 04:12:37 46° NE 04:14:10 36° E
SPOT 5 3.2 04:12:49 44° SSW 04:14:18 64° W 04:19:35 10° NNW
Cosmos 2341 Rocket 4.3 04:08:13 10° N 04:14:31 56° ENE 04:16:10 44° SE
Cosmos 1898 Rocket 3.4 04:14:18 46° SSW 04:15:57 89° ESE 04:21:20 10° NNE
SJ 16-02 3.6 04:15:29 10° WSW 04:19:05 24° WNW 04:22:43 10° N
Cosmos 923 Rocket 4.2 04:15:16 10° NNW 04:20:29 63° WSW 04:21:36 50° SSW
Cosmos 1943 Rocket 2.1 04:20:39 58° SSE 04:21:32 67° ESE 04:27:05 10° NNE
Cosmos 990 Rocket 4.3 04:19:25 31° SW 04:21:54 66° WNW 04:27:09 10° NNE
Cosmos 2278 Rocket 4.4 04:21:46 10° WSW 04:26:19 25° NW 04:30:55 10° N
DNEPR-1 R/B 4.0 04:25:23 35° SSW 04:28:03 88° ESE 04:33:10 10° NE
Cosmos 1733 Rocket 3.4 04:24:56 10° N 04:28:48 53° ENE 04:28:48 53° ENE
Cosmos 2369 Rocket 2.7 04:33:00 41° E 04:33:00 41° E 04:37:47 10° NE
USA 305 4.5 04:31:00 10° WNW 04:33:44 26° WSW 04:33:44 26° WSW
Cosmos 1544 4.1 04:33:28 10° NNW 04:36:20 43° WNW 04:36:20 43° WNW
Okean 1 3.9 04:40:40 51° NNE 04:40:40 51° NNE 04:43:44 10° N
Cosmos 2084 Rocket 3.6 04:36:25 10° NNW 04:40:24 69° NNE 04:40:24 69° NNE
Cosmos 1340 Rocket 3.4 04:37:27 10° NNW 04:41:05 52° WNW 04:41:05 52° WNW
Cosmos 1743 3.4 04:38:24 10° NNW 04:41:34 53° NW 04:41:34 53° NW
SL-8 Rocket 4.0 04:37:45 10° N 04:44:06 73° E 04:45:15 59° SE
Cosmos 1238 Rocket 3.4 04:39:23 10° N 04:45:21 79° E 04:45:44 74° SE
Meteor 2-9 Rocket 4.2 04:41:50 10° N 04:47:35 68° ENE 04:48:06 64° ESE
Meteor 1-19 Rocket 3.9 04:54:24 80° SSE 04:54:40 85° E 05:00:05 10° NNE
Gbstr 26 Del rocket 4.0 04:54:28 10° NW 05:01:51 78° NNE 05:03:26 54° ESE
Cosmos 2263 4.4 05:04:30 55° E 05:04:30 55° E 05:09:44 10° NNE
Cosmos 1867 3.9 05:05:35 53° ENE 05:05:35 53° ENE 05:10:05 10° NE
ATLAS 2AS CENTAUR R/B 3.0 04:59:09 10° NW 05:06:06 51° WSW 05:07:07 48° SW
Cosmos 864 Rocket 4.3 05:04:15 10° N 05:10:26 90° E 05:11:06 73° S
Cosmos 1862 Rocket 4.2 05:12:56 50° NW 05:12:56 50° NW 05:16:40 10° N
Meteor 2-4 Rocket 3.7 05:12:55 71° E 05:12:56 71° E 05:18:33 10° NNE
Cosmos 1959 Rocket 4.3 05:06:52 10° N 05:13:06 84° W 05:13:48 71° SSW
Cosmos 1975 3.9 05:12:55 10° N 05:15:40 43° NNW 05:15:40 43° NNW
Okean 1-7 4.1 05:23:18 39° NNE 05:23:18 39° NNE 05:26:11 10° NNE
RESURS DK-1 3.6 05:19:49 10° NNW 05:22:55 39° NNE 05:22:55 39° NNE
ISS -0.7 05:30:09 13° NE 05:30:09 13° NE 05:30:40 10° NE
Cosmos 1833 4.4 05:25:49 10° NNW 05:31:32 60° ENE 05:31:57 59° E
Cosmos 1048 Rocket 4.1 05:28:23 10° NNW 05:33:26 68° NE 05:33:26 68° NE
Terra 4.1 05:34:53 14° W 05:35:11 14° W 05:37:41 10° WNW
Gblst 52 Del rocket 4.3 05:36:26 10° WNW 05:43:17 90° SW 05:43:42 79° SE
Cosmos 1821 Rocket 3.9 05:38:35 10° N 05:45:01 78° E 05:45:32 73° SE
Cosmos 44 Rocket 4.4 05:41:59 10° NNW 05:46:56 40° NE 05:47:34 38° ENE
ALOS 2 3.4 05:52:15 48° NNW 05:52:15 48° NNW 05:55:30 10° NNW
Cosmos 2298 Rocket 4.1 05:51:26 71° NW 05:51:26 71° NW 05:56:30 10° NNE
Thor Agena Rocket 4.0 05:48:08 10° NNE 05:52:40 53° ENE 05:52:40 53° ENE
Cosmos 1607 4.3 05:57:01 48° WSW 05:58:39 63° NW 06:05:07 10° NNE
SeaSat 1 3.7 05:57:50 10° NE 06:01:03 32° ENE 06:01:03 32° ENE
Meteor 1-12 Rocket 4.2 05:58:08 10° N 06:03:55 88° NNW 06:03:55 88° NNW
ATLAS CENTAUR R/B 3.1 06:06:19 27° N 06:06:19 27° N 06:08:20 10° NNE
Cosmos 1943 Rocket 4.3 06:02:06 12° W 06:05:46 21° NW 06:09:58 10° N
Cosmos 2369 Rocket 3.7 06:14:45 25° W 06:16:38 30° NW 06:21:35 10° N
Sich 1 Rocket 4.4 06:14:27 10° N 06:17:54 51° N 06:17:54 51° N
Cosmos 1656 Rocket 4.5 06:19:41 39° W 06:20:27 41° WNW 06:25:42 10° NNE
Cosmos 494 Rocket 4.5 06:16:04 10° NNW 06:20:13 51° WNW 06:20:13 51° WNW
Cosmos 1300 Rocket 4.5 06:17:56 10° N 06:21:09 47° N 06:21:09 47° N
Lacrosse 5 2.5 06:27:22 49° ENE 06:27:22 49° ENE 06:31:09 10° NE
Nadezhda 3 Rocket 4.3 06:25:44 51° W 06:26:21 53° WNW 06:32:25 10° N
CZ-2D R/B 4.2 06:29:35 10° NE 06:32:31 15° E 06:33:07 14° E
Okean 2 Rocket 3.9 06:30:42 10° N 06:33:57 49° N 06:33:57 49° N
Cosmos 1125 Rocket 4.3 06:35:03 40° WNW 06:35:16 41° WNW 06:40:12 10° N
Meteor 1-15 Rocket 4.2 06:29:47 10° NNW 06:35:25 81° W 06:35:25 81° W
Cosmos 2151 Rocket 4.3 06:32:00 10° N 06:35:33 51° NNE 06:35:33 51° NNE
NOSS 2-1 (E) 4.5 06:32:22 10° NNW 06:37:34 73° NE 06:38:50 57° ESE
Resurs 1-4 Rocket 4.1 06:35:26 10° NE 06:38:47 17° E 06:39:15 17° E
Helios 1A 4.3 06:42:57 34° NE 06:42:57 34° NE 06:46:18 10° N
USA 215 3.5 06:39:06 18° ESE 06:44:03 66° NE 06:50:32 10° NW
Cosmos 1726 4.2 06:46:30 10° NNE 06:48:44 25° NE 06:48:44 25° NE
Cosmos 1470 4.4 06:46:18 10° N 06:49:01 31° NE 06:49:01 31° NE
Cosmos 1605 Rocket 3.8 06:44:35 10° N 06:50:54 88° E 06:51:32 74° SSE
USA 281 4.2 06:49:17 20° ESE 06:53:25 42° ENE 06:59:32 10° NNW
Cosmos 1400 Rocket 3.9 06:59:59 10° N 07:02:50 43° N 07:02:50 43° N
ISS -0.9 07:03:03 10° NW 07:05:28 18° N 07:07:54 10° NE
Cosmos 2227 Rocket 3.6 07:01:57 10° N 07:07:02 33° NE 07:10:57 15° ESE
Cosmos 2297 Rocket 3.1 07:04:25 10° NNW 07:09:51 44° ENE 07:12:27 27° ESE
Cosmos 1315 Rocket 4.4 07:06:59 10° NNE 07:10:25 29° ENE 07:10:25 29° ENE
Cosmos 1378 Rocket 4.1 07:11:27 55° N 07:11:27 55° N 07:14:52 10° N
USA 81 4.3 07:07:25 10° NNW 07:12:19 58° WNW 07:12:19 58° WNW
Meteor 1-21 4.2 07:14:39 68° SE 07:15:13 74° E 07:21:01 10° NNE
Okean 2 4.1 07:17:44 53° N 07:17:44 53° N 07:20:58 10° N
Cosmos 1656 3.6 07:26:41 64° SE 07:27:00 65° ESE 07:32:29 10° NNE
Meteor 2-20 Rocket 4.3 07:29:30 65° S 07:30:32 89° W 07:36:45 10° N
Cosmos 2100 Rocket 4.1 07:24:33 10° N 07:30:53 72° E 07:32:47 47° SSE
Cosmos 2251 Rocket 3.8 07:26:48 10° NNW 07:32:00 62° ENE 07:33:16 47° ESE
Cosmos 1707 3.6 07:33:30 48° N 07:33:30 48° N 07:36:21 10° N
Cosmos 1802 Rocket 4.4 07:27:03 10° N 07:33:04 55° ENE 07:35:31 34° SE
Okean 1 Rocket 3.7 07:31:10 10° NNW 07:34:35 47° NW 07:34:35 47° NW
SeaSat 1 3.6 07:35:31 10° N 07:39:50 31° NW 07:40:49 29° WNW
CZ-4 R/B 4.2 07:41:12 10° N 07:45:52 50° WNW 07:45:58 50° WNW
COSMOS 2455 2.7 07:40:16 10° NNW 07:46:18 74° WSW 07:47:29 57° S
Helios 1B rocket 2.8 07:43:49 10° NNE 07:47:45 59° E 07:47:45 59° E
Cosmos 1908 4.4 07:44:47 10° N 07:48:26 37° ENE 07:48:52 36° E
Cosmos 371 Rocket 3.1 07:48:59 80° S 07:49:15 87° ESE 07:54:10 10° NNE
Cosmos 1000 Rocket 4.4 07:48:50 54° SSW 07:50:24 87° W 07:56:42 10° N
Cosmos 332 Rocket 4.0 07:53:44 56° SE 07:54:18 60° ESE 07:59:06 10° NNE
Cosmos 2219 3.2 07:48:49 10° NNW 07:54:33 85° ENE 07:56:43 40° SSE
Cosmos 1727 Rocket 4.4 07:54:04 42° WSW 07:55:22 48° WNW 08:01:30 10° N
USA 276 4.0 08:01:29 26° NNW 08:01:35 27° NNW 08:04:21 10° NE
Lacrosse 4 Rocket 2.1 08:02:37 45° SE 08:02:56 46° ESE 08:07:11 10° NE
SL-16 R/B 2.5 08:00:36 39° SSE 08:03:12 87° WSW 08:09:30 10° NNW
Cosmos 1544 Rocket 4.2 07:59:00 10° N 08:03:18 50° ENE 08:04:39 37° SE
Cosmos 1953 2.3 08:00:22 10° N 08:04:21 73° E 08:04:27 72° E
ADEOS II 2.8 07:59:53 10° NNE 08:04:56 45° E 08:06:52 32° SSE
Lacrosse 5 3.5 08:06:31 17° WNW 08:09:28 28° NNW 08:13:52 10° NNE
AQUA 3.9 08:05:24 10° NNE 08:10:11 72° ESE 08:11:12 53° SSE
Landsat 4 4.0 08:07:37 10° NNE 08:11:21 58° ESE 08:11:29 58° ESE
NPP 3.6 08:07:05 10° NNE 08:12:31 89° WNW 08:14:01 50° SSW
CZ-2D R/B 2.1 08:07:44 10° N 08:13:08 73° WNW 08:14:26 51° SW
Cosmos 1455 Rocket 2.8 08:09:03 10° NNW 08:13:24 75° W 08:13:38 72° SW
Meteor 1-29 3.1 08:15:00 10° NNE 08:18:11 66° ENE 08:18:11 66° ENE
Resurs 1-4 Rocket 2.2 08:13:50 10° N 08:19:01 62° WNW 08:20:20 47° SW
ADEOS Rocket 4.0 08:13:52 10° SSE 08:21:09 60° ENE 08:28:47 10° N
BREEZE-M DEB (TANK) 3.2 08:19:53 45° WSW 08:21:32 88° SSE 08:34:44 10° ENE
Cosmos 1536 Rocket 4.3 08:20:10 33° SE 08:21:41 47° E 08:25:57 10° NNE
MINOTAUR 4 R/B 4.0 08:24:10 75° WNW 08:24:10 75° WNW 08:27:33 10° NNW
Cosmos 1726 4.4 08:22:13 10° NW 08:23:10 14° WNW 08:23:10 14° WNW
Cosmos 1674 3.0 08:25:26 52° WNW 08:25:26 52° WNW 08:29:04 10° N
Cosmos 407 Rocket 3.7 08:20:09 10° NNW 08:25:31 74° ENE 08:29:41 17° SSE
Cosmos 1697 Rocket 2.6 08:24:06 45° SSW 08:25:54 82° WNW 08:31:33 10° NNE
Cosmos 2360 4.2 08:24:06 43° SSW 08:26:06 85° ESE 08:31:53 10° NNE
Cosmos 1725 Rocket 3.9 08:20:09 10° N 08:26:26 82° W 08:29:35 31° S
USA 215 3.6 08:26:21 37° SSW 08:27:17 38° SW 08:33:18 10° WNW
GP-B 3.7 08:24:24 10° N 08:28:45 54° E 08:30:46 29° SSE
Meteor 1-16 Rocket 4.3 08:23:12 10° NNW 08:29:05 68° W 08:31:25 37° SSW
Cosmos 1459 Rocket 4.4 08:24:33 10° NNW 08:30:24 43° W 08:32:04 36° SW
Cosmos 1624 Rocket 4.2 08:32:24 35° S 08:34:36 68° ESE 08:39:55 10° NNE
Cosmos 2233 Rocket 4.0 08:29:08 10° N 08:35:21 77° E 08:40:08 17° SSE
SL-14 R/B 3.4 08:34:44 46° SSE 08:35:44 67° E 08:39:41 10° NNE
USA 281 3.6 08:36:07 34° SW 08:37:54 40° WSW 08:44:01 10° NW
Cosmos 1980 Rocket 2.4 08:35:56 32° S 08:38:33 67° ESE 08:44:11 10° NNE
Cosmos 2016 Rocket 4.1 08:34:24 10° NNW 08:40:27 54° W 08:43:02 33° SSW
Cosmos 1626 2.1 08:42:30 57° WSW 08:42:50 60° W 08:46:30 10° N
ISS -2.1 08:39:50 10° NW 08:42:59 35° NNE 08:46:08 10° E
Cosmos 1975 Rocket 4.3 08:45:41 25° W 08:46:09 26° WNW 08:49:48 10° NNW
Cosmos 2061 Rocket 4.3 08:44:33 10° NNW 08:50:37 49° W 08:53:38 28° SSW
Cosmos 2227 Rocket 2.7 08:45:56 10° NW 08:51:07 38° WSW 08:52:41 32° SW
Timation 2 Rocket 4.4 08:45:52 10° NW 08:51:18 37° WSW 08:53:10 30° SW
Cosmos 304 Rocket 4.4 08:51:51 32° WSW 08:53:27 43° WNW 08:58:02 10° N
Cosmos 2297 Rocket 3.1 08:48:55 10° NW 08:53:39 28° WSW 08:54:12 27° WSW
DELTA 2 DEB (DPAF) 4.1 08:51:43 31° S 08:53:47 68° WSW 08:58:15 10° NNW
Cosmos 2056 Rocket 3.4 08:53:58 33° SSW 08:56:19 79° WNW 09:01:28 10° NNE
GRACE-FO 1 4.4 08:53:41 10° N 08:57:19 79° W 08:58:32 40° SSW
Cosmos 1300 2.7 08:53:47 10° N 08:57:37 82° E 08:59:48 24° SSE
GRACE-FO 2 4.4 08:54:08 10° N 08:57:46 78° W 08:58:58 40° SSW
ARGOS Delta rocket 4.3 08:53:19 10° N 08:57:46 44° WNW 08:59:36 31° WSW
Cosmos 2285 Rocket 4.0 08:55:09 26° SSW 08:58:59 87° WNW 09:05:28 10° NNE
Cosmos 2369 3.9 08:56:40 30° SW 08:59:29 60° WNW 09:05:11 10° NNE
Cosmos 2278 3.7 08:57:34 27° SSW 09:00:48 87° ESE 09:06:33 10° NNE
Geosat FO 4.5 09:02:14 10° NNE 09:05:42 87° ESE 09:07:06 35° SSW
Cosmos 2082 3.8 09:01:23 10° NNW 09:06:57 56° WSW 09:12:30 10° S
Cosmos 1371 Rocket 4.3 09:06:34 28° SW 09:09:11 54° WNW 09:14:19 10° NNE
Cosmos 1025 Rocket 4.2 09:08:50 24° WSW 09:10:02 28° WNW 09:13:49 10° NNW
OAO 2 Rocket 4.2 09:08:20 27° SSW 09:10:10 34° S 09:14:57 10° ESE
MSX 4.0 09:08:14 10° NNE 09:14:01 71° ESE 09:19:17 13° S
SL-16 R/B 3.5 09:09:02 10° S 09:14:08 36° ESE 09:19:16 10° NE
IRS-1D 4.0 09:12:59 10° N 09:18:08 50° WNW 09:21:23 22° SW
Iridium 2 4.2 09:16:55 29° SW 09:18:18 42° W 09:21:58 10° N
Cosmos 1140 Rocket 3.9 09:14:45 10° NNW 09:19:39 41° WSW 09:23:28 16° SSW
SL-08 R/B 3.6 09:19:11 10° SSE 09:23:50 67° ENE 09:28:27 10° N
IDEFIX/ARIANE 42P 2.6 09:20:26 10° N 09:25:41 67° WNW 09:29:42 17° SSW
Cosmos 1892 Rocket 4.4 09:22:07 10° SSE 09:26:16 48° E 09:30:27 10° NNE
Cosmos 1340 2.8 09:24:28 25° SW 09:26:24 54° WNW 09:30:05 10° N
Meteor 1-28 Rocket 4.0 09:28:39 24° SW 09:29:57 30° W 09:33:16 10° NNW
COSMOS 2441 4.4 09:28:51 10° NNE 09:33:48 90° WNW 09:38:30 11° SSW
Meteor 2-10 Rocket 3.7 09:33:21 10° NNW 09:39:05 83° W 09:44:34 10° S
CZ-2C R/B 4.3 09:37:14 10° NNE 09:40:59 37° E 09:44:44 10° SSE
Cosmos 2322 Rocket 3.1 09:35:57 10° S 09:41:20 47° ESE 09:46:46 10° NE
Lacrosse 4 Rocket 3.2 09:38:55 12° W 09:41:50 22° NW 09:45:17 10° N
Cosmos 1891 Rocket 4.4 09:36:02 10° N 09:42:08 79° W 09:48:08 10° S
ADEOS II 3.4 09:40:09 10° N 09:44:20 25° WNW 09:47:49 13° WSW
ARIANE 5 R/B 2.5 09:39:49 10° N 09:44:57 75° WNW 09:49:59 10° SSW
Cosmos 2058 Rocket 3.9 09:40:42 10° N 09:45:09 54° E 09:49:34 10° SSE
IRS-P3 4.3 09:40:43 10° N 09:45:58 59° WNW 09:50:56 11° SSW
Cosmos 2263 Rocket 2.1 09:40:43 10° NNW 09:46:23 79° WSW 09:52:03 10° SSE
SL-16 R/B 4.2 09:45:42 12° WSW 09:47:36 13° W 09:50:32 10° WNW
Cosmos 1726 Rocket 3.5 09:43:29 10° N 09:47:53 85° W 09:52:18 10° S
Cosmos 1606 Rocket 3.6 09:43:36 10° NNW 09:47:58 65° W 09:52:21 10° S
Meteor 1-24 Rocket 4.1 09:43:44 14° SW 09:48:15 45° WNW 09:53:25 10° N
Cosmos 2228 3.2 09:45:31 10° NNW 09:49:41 50° W 09:53:50 10° S
CZ-2D R/B 4.3 09:50:51 10° NW 09:52:11 11° NW 09:53:31 10° WNW
NOSS 3-2 (A) 3.6 09:47:34 10° SSW 09:52:58 68° ESE 09:59:11 10° NE
Lacrosse 5 4.4 09:50:48 10° NW 09:53:56 16° N 09:57:06 10° NE
CZ-4B R/B 3.7 09:50:18 10° N 09:55:12 56° WNW 10:00:13 10° SSW
Cosmos 2346 Rocket 4.4 09:50:43 10° S 09:56:47 80° W 10:02:52 10° N
Tsikada Rocket 4.4 09:57:40 10° S 10:04:02 71° E 10:10:22 10° NNE
Cosmos 2360 Rocket 3.4 09:58:47 10° S 10:04:02 41° ESE 10:09:18 10° NE
Cosmos 1241 Rocket 4.5 09:59:06 10° NW 10:05:36 79° WSW 10:11:55 10° SSE
USA 238 DEB 3.9 10:00:27 10° SSW 10:06:53 67° ESE 10:13:39 10° NE
ADEOS Rocket 4.3 10:00:37 10° SSW 10:06:57 30° W 10:13:37 10° NNW
USA 238 4.0 10:00:34 10° SSW 10:07:00 66° ESE 10:13:45 10° NE
Aureole 2 Rocket 3.1 10:05:56 10° NW 10:08:01 20° WSW 10:10:07 10° SSW
Cosmos 405 4.4 10:05:56 10° NW 10:08:37 21° W 10:11:17 10° SW
SWAS 4.5 10:04:30 10° SSW 10:08:49 87° WNW 10:13:10 10° NNE
BREEZE-M DEB (TANK) 4.5 09:59:16 10° WNW 10:12:43 47° SW 10:16:39 10° SSE
Cosmos 1464 Rocket 4.2 10:08:19 10° NNW 10:14:14 50° W 10:20:11 10° SSW
Cosmos 292 Rocket 4.5 10:10:50 10° SW 10:15:23 40° WNW 10:19:59 10° N
Atlas Centaur 2 3.9 10:11:50 10° SW 10:17:23 23° S 10:22:10 10° ESE
BREEZE-M DEB (TANK) 3.3 10:17:31 10° W 10:19:34 43° NNW 10:24:02 10° ENE
ISS -3.2 10:16:39 10° WNW 10:19:48 36° SW 10:22:56 10° SSE
Cosmos 1980 Rocket 3.8 10:18:48 10° W 10:23:04 21° NW 10:27:20 10° N
Cosmos 1626 Rocket 3.9 10:19:53 10° S 10:24:14 70° E 10:28:39 10° NNE
Cosmos 2034 Rocket 4.1 10:18:20 10° NNW 10:24:34 60° W 10:30:42 10° S
